Location: B�hl
(48.6968°N, 8.1352°E)
Time: 10:40:08
(UTC+00:00)

GP-B - Pass Details

Date: 08 March 2021
Orbit: 631 x 634 km, 89.8° (Epoch: 10 April)

Event Time Altitude Azimuth Distance (km) Brightness Sun altitude
Rises 17:55:40 0° 160° (SSE) 2,920 6.3 -6.3°
Reaches altitude 10° 17:57:56 10° 154° (SSE) 2,017 5.4 -6.7°
Maximum altitude 18:02:10 46° 82° (E) 861 3.4 -7.4°
Drops below altitude 10° 18:06:26 10° 10° (N) 2,032 5.6 -8.1°
Sets 18:08:44 0° 4° (N) 2,946 6.5 -8.5°
